Location: Christian Reformed Church
(43.0975°N, 93.8113°W)
Time: 09:42:16
(UTC+00:00)

IRS-P3 - Pass Details

Date: 17 March 2026
Orbit: 810 x 816 km, 99.0° (Epoch: 20 April)

Event Time Altitude Azimuth Distance (km) Brightness Sun altitude
Rises 00:50:32 0° 178° (S) 3,327 7.2 -5.9°
Reaches altitude 10° 00:52:56 10° 183° (S) 2,400 6.6 -6.3°
Maximum altitude 00:58:06 52° 259° (W) 1,004 5.1 -7.2°
Drops below altitude 10° 01:03:19 10° 336° (NNW) 2,415 7.0 -8.2°
Sets 01:05:44 0° 341° (NNW) 3,351 7.7 -8.6°
